Wind_Speed
12 12 13 13 14 14 12 13 13 12 9 8 8 8 9 9 9 9 8 10 9 9 9 8 8 6 4 1 2 3 5 6 7 7 7 7 7 6 5 3 1 1 3 4 3 4 5 7 9
7 8 9 11 10 9 9 9 10 9 8 7 8 9 9 10 9 11 10 10 11 10 11 11 11 10 8 6 5 3 3 3 2 2 4 5 5 4 3 2 2 2 1 2 2 5 6 6 7
7 8 9 10 9 8 7 8 8 7 7 8 9 11 11 10 10 11 12 12 13 13 12 11 12 12 12 10 9 8 5 5 4 4 4 4 3 4 3 2 2 2 3 4 4 5 7 8 9
7 8 8 9 10 10 10 9 10 11 10 10 10 11 12 12 12 10 11 11 12 15 15 15 13 13 14 14 12 11 11 9 9 8 8 8 7 6 6 6 6 6 8 8 9 10 11 11 11
9 8 8 7 9 10 10 10 10 9 9 11 11 11 10 11 12 11 11 10 10 11 14 17 17 16 15 15 15 15 15 13 13 14 11 10 10 10 10 11 11 12 13 12 13 14 15 15 15
10 10 10 9 9 10 11 10 10 11 10 9 10 12 11 9 10 11 10 10 10 10 12 14 16 18 17 17 18 18 18 18 17 17 16 15 13 13 13 14 15 15 15 15 15 15 15 16 16
14 14 13 13 12 12 11 12 13 14 14 12 11 11 12 11 8 8 9 9 8 9 10 11 13 15 17 19 20 21 22 21 21 20 20 20 19 17 17 17 18 19 19 18 18 18 18 16 16
20 20 19 18 16 16 16 14 14 14 15 15 14 15 15 13 10 10 10 10 10 10 9 10 10 11 13 15 18 20 22 23 23 23 23 23 23 23 22 22 23 23 25 25 24 23 22 21 20
25 23 24 23 23 22 21 20 20 16 17 16 17 18 18 18 17 13 13 13 13 13 13 13 12 11 13 14 16 18 21 23 25 26 26 27 26 25 25 25 27 27 28 28 28 27 27 26 26
29 27 27 28 28 27 26 25 27 21 22 20 23 21 21 22 22 19 18 18 18 17 16 16 16 16 16 17 18 18 20 23 25 27 27 28 30 30 29 29 28 29 29 30 30 29 29 29 29
30 28 30 30 31 32 31 29 30 28 21 26 29 28 23 24 26 26 26 24 23 23 22 21 20 19 18 19 20 22 23 23 24 26 28 30 31 32 32 32 31 31 31 32 33 33 34 34 35
32 30 33 30 35 34 34 33 31 31 24 29 30 30 26 27 28 29 31 30 28 28 27 27 26 24 23 23 22 23 24 26 27 27 28 29 31 33 34 34 34 34 35 34 35 34 35 36 36
32 31 32 32 34 36 36 33 36 27 28 32 30 30 31 32 31 32 32 32 34 33 33 32 31 29 28 26 26 26 26 27 28 28 29 28 29 30 31 32 33 34 35 35 36 37 38 39 39
36 33 31 30 30 34 37 35 36 19 31 32 29 29 28 29 30 31 32 34 35 36 37 37 35 34 32 30 29 30 30 30 29 29 29 28 28 29 29 31 31 33 34 35 36 37 39 40 40
39 37 33 24 28 35 40 40 27 24 33 31 29 29 30 29 27 27 31 33 36 37 39 39 39 37 35 34 33 33 33 32 31 30 30 30 30 30 30 30 31 32 33 35 35 35 36 37 39
40 41 35 22 31 38 44 45 23 31 35 32 34 32 31 31 32 30 30 31 34 33 34 36 36 36 37 37 36 35 34 35 34 33 32 31 30 29 28 29 30 30 31 33 33 34 35 36 40
40 46 45 40 30 40 45 49 31 35 40 40 37 36 34 32 32 33 34 36 36 35 35 35 36 36 36 35 35 36 38 35 35 33 32 34 32 29 29 31 31 32 34 36 36 37 38 39 41
45 49 48 45 31 40 49 50 44 37 42 43 41 39 39 36 31 32 38 39 40 38 36 35 33 32 33 34 35 38 40 37 38 37 36 34 32 31 31 31 31 33 34 36 37 40 41 41 41
51 51 50 45 39 49 50 52 45 38 35 35 36 38 38 38 34 34 35 38 39 36 34 35 35 34 35 37 38 40 40 39 39 39 38 34 32 33 31 31 32 34 34 35 36 38 39 40 43
51 51 52 52 48 54 54 52 48 43 38 34 30 32 30 30 31 32 38 40 39 37 36 37 38 37 38 40 40 40 38 39 39 37 34 33 36 34 32 34 34 36 37 38 38 39 39 39 40
50 52 52 56 51 53 55 55 50 41 36 34 38 35 36 32 33 33 37 38 39 38 39 39 40 39 39 39 38 38 39 40 37 35 37 40 37 36 36 36 37 38 39 40 40 42 42 41 41
52 43 48 51 56 57 55 53 48 42 42 40 40 41 31 30 27 30 34 37 37 37 39 40 42 43 43 43 42 43 43 43 41 42 42 40 39 39 39 38 39 41 42 42 42 43 43 43 43
53 54 52 52 56 59 57 60 54 55 48 42 37 37 43 36 35 33 36 39 38 39 40 42 43 44 45 45 45 46 46 46 46 47 45 43 41 41 42 42 44 45 45 45 47 46 45 46 46
54 55 57 57 58 61 58 59 45 56 57 59 57 50 50 54 45 38 38 39 37 40 42 41 40 43 44 46 49 50 50 46 46 43 42 43 44 45 46 45 47 50 51 51 51 51 51 50 52
53 55 59 63 66 64 63 64 56 63 60 66 65 65 66 60 57 54 46 44 43 38 42 41 44 44 45 46 45 48 51 50 46 44 43 46 48 49 50 50 52 54 57 57 57 56 55 56 55
57 57 61 65 66 68 67 74 68 63 62 67 67 68 67 69 64 58 50 42 41 41 40 44 45 39 36 38 44 45 48 47 45 46 48 50 52 52 52 52 52 52 54 55 57 58 57 58 58
62 60 54 60 61 68 75 75 73 68 66 67 68 70 70 68 59 51 41 31 30 34 38 43 44 38 38 44 51 49 45 47 52 52 52 55 56 55 55 52 50 53 55 57 57 57 59 60 61
65 62 62 60 63 65 65 64 69 72 70 67 68 65 62 58 51 34 25 33 30 37 41 45 44 45 50 46 51 56 57 54 57 57 58 62 62 60 57 57 55 56 57 58 58 57 57 58 58
73 74 74 73 73 76 76 73 49 55 65 69 61 58 59 57 49 42 48 48 40 42 41 44 50 56 55 52 49 53 58 60 63 60 59 58 59 59 60 61 61 61 60 59 58 58 59 60 59
75 76 74 67 72 70 65 67 61 47 44 49 54 59 51 41 48 57 51 36 36 52 57 56 57 61 59 54 54 54 55 60 62 57 58 58 60 61 61 60 62 62 61 58 59 59 58 58 58
Wind_Direction
308 314 314 316 325 330 327 317 319 325 319 313 321 323 318 314 296 286 287 298 310 312 308 306 307 321 324 296 161 123 118 108 104 114 122 123 125 122 112 103 81 7 315 311 333 315 313 300 291
330 329 334 340 344 336 331 331 334 331 326 337 340 334 328 319 307 291 272 271 283 288 293 294 295 293 295 302 298 248 220 198 166 149 131 141 135 133 146 172 181 189 238 290 301 282 279 290 293
342 342 352 357 5 357 360 345 340 330 345 346 358 360 357 344 326 298 289 273 267 272 276 282 285 285 282 278 287 289 268 260 248 228 227 226 216 187 189 230 271 254 259 270 270 270 270 273 276
347 344 355 353 356 11 17 8 353 347 354 354 353 357 356 353 347 333 304 290 280 271 269 269 271 276 279 282 279 277 284 285 280 277 270 266 258 253 254 257 265 279 286 286 290 288 283 277 281
337 341 341 344 338 349 355 5 353 345 355 350 348 342 347 347 349 346 338 309 293 277 268 265 265 265 269 272 272 272 275 277 279 274 268 267 268 271 268 267 273 278 282 284 288 290 286 283 280
321 321 326 330 328 331 329 335 332 328 336 341 345 336 341 334 334 340 338 336 330 310 286 273 267 264 263 263 267 268 269 269 268 268 267 267 267 266 268 267 266 270 274 278 282 286 286 281 279
317 317 320 322 325 323 319 322 326 324 325 330 331 325 329 333 323 314 321 327 326 320 312 302 289 276 265 261 262 262 263 263 261 262 262 264 264 263 263 266 269 267 267 272 275 279 278 276 267
307 310 312 315 317 317 318 317 314 313 317 319 318 319 327 329 319 310 298 297 300 300 301 301 296 287 278 274 269 265 263 261 263 263 258 258 261 263 264 264 264 263 265 268 271 274 275 273 266
298 302 302 304 304 304 305 304 302 303 304 300 305 305 307 310 311 308 302 296 289 285 281 277 278 280 282 278 274 269 266 263 259 257 255 254 256 261 265 264 263 264 265 267 268 269 269 270 267
293 297 295 299 298 297 297 295 294 298 297 281 292 290 295 296 294 293 289 287 287 285 282 279 275 275 276 274 271 271 268 266 264 261 257 257 258 260 261 262 263 262 261 264 267 267 268 269 270
293 294 291 293 291 292 291 290 292 294 290 279 287 291 293 284 283 286 284 282 280 279 279 280 278 276 274 274 272 269 266 266 265 265 264 263 263 265 265 265 267 266 266 268 269 270 270 269 269
292 291 288 290 291 292 287 287 288 293 287 280 285 286 280 269 272 277 279 278 277 275 275 274 276 278 277 273 271 271 269 265 264 264 266 265 265 266 267 267 267 268 268 267 267 269 269 267 270
291 286 288 288 291 290 287 287 285 297 287 281 285 286 283 277 273 272 272 275 273 272 273 274 273 272 272 274 270 268 270 269 265 262 262 264 264 265 267 269 269 271 272 272 272 272 270 270 273
290 290 290 292 293 288 284 279 290 300 277 282 286 287 288 283 278 275 272 270 271 274 273 271 272 270 269 270 268 268 272 274 272 267 265 264 264 266 268 269 271 274 276 275 274 273 273 272 272
288 287 288 295 286 280 277 279 297 287 274 279 280 291 294 291 288 282 272 269 267 266 269 272 272 270 270 268 268 268 270 274 273 269 264 261 260 262 267 272 273 274 275 276 276 276 274 273 273
288 288 289 274 268 276 279 284 283 280 277 275 278 281 286 284 284 281 275 270 266 268 270 269 268 267 267 267 266 269 271 274 273 269 265 260 261 263 266 270 270 272 273 274 275 275 275 274 271
293 290 284 280 286 287 283 284 285 274 272 273 274 277 278 278 280 278 271 272 273 273 272 269 264 266 269 271 271 268 270 274 272 271 266 260 261 261 262 264 266 267 267 267 268 270 272 273 272
286 283 286 289 294 286 282 281 278 271 272 277 281 281 279 278 276 269 269 271 270 271 271 270 269 268 269 268 267 268 270 272 271 269 266 262 261 260 262 264 267 268 267 267 268 269 269 270 271
280 283 286 290 292 284 279 280 285 285 282 286 287 284 279 278 275 266 268 267 269 270 265 262 263 264 268 269 264 264 269 269 269 267 264 262 262 263 266 271 271 269 268 267 268 269 270 270 270
277 282 284 287 288 281 283 282 284 290 294 297 288 288 281 279 274 268 267 266 269 267 262 260 260 263 265 268 269 267 266 269 267 265 266 262 261 266 273 277 275 274 273 273 272 272 271 270 269
275 277 282 279 279 278 285 284 287 289 293 290 291 286 291 284 275 273 271 268 268 266 262 259 260 262 266 267 269 266 265 267 265 260 255 257 263 268 274 274 274 275 276 277 276 276 275 273 272
270 272 270 275 277 281 281 283 286 292 293 291 289 292 279 275 279 275 272 271 266 261 260 260 259 261 265 265 264 262 262 264 265 263 262 263 266 270 272 273 276 277 277 279 280 278 275 275 276
273 271 271 270 272 274 276 284 298 302 300 294 291 289 289 272 271 270 274 272 269 266 262 262 263 264 265 265 261 259 260 262 263 264 264 266 268 270 273 276 277 276 276 277 278 280 279 281 282
275 273 272 269 267 267 274 279 279 290 294 299 296 290 285 283 280 272 268 268 270 271 271 265 261 259 261 261 263 262 262 266 265 265 266 266 268 272 276 277 280 282 281 279 278 278 278 280 285
277 274 273 271 268 272 275 274 277 279 286 290 290 289 289 286 284 287 283 281 274 273 275 273 268 267 265 266 267 264 264 265 264 264 267 271 272 274 275 276 276 279 278 278 277 277 276 278 280
276 274 275 276 280 278 273 270 273 278 280 283 282 281 286 289 291 288 288 285 278 274 263 264 267 265 271 270 265 269 266 264 265 267 268 268 269 272 276 278 279 279 279 278 278 279 279 279 280
276 272 278 272 270 271 272 275 277 280 278 277 278 278 280 285 293 292 287 275 281 266 259 253 247 251 274 269 265 264 259 263 267 268 269 271 273 275 276 277 278 280 279 277 277 278 279 279 279
276 275 272 271 275 273 275 269 277 286 282 278 277 277 282 282 280 279 262 264 271 258 246 236 241 253 266 268 266 265 264 263 267 269 272 274 277 278 277 278 278 278 278 277 276 276 276 277 277
278 277 278 277 277 281 284 279 277 274 272 276 272 270 273 276 283 261 261 266 262 249 243 245 250 258 263 268 258 255 258 259 265 269 274 273 272 273 273 273 274 276 276 274 274 273 273 273 273
277 279 281 283 286 284 282 273 279 274 268 264 272 278 274 265 272 264 263 254 249 246 249 257 261 259 265 264 259 259 262 260 268 270 275 276 273 272 272 272 274 273 271 270 270 270 270 269 268
Height
5876 5875 5873 5872 5873 5870 5868 5866 5864 5863 5863 5862 5861 5860 5860 5859 5858 5859 5856 5855 5854 5854 5855 5854 5854 5853 5854 5854 5855 5855 5855 5855 5855 5856 5856 5857 5858 5859 5860 5861 5862 5863 5864 5866 5865 5866 5866 5866 5867
5875 5874 5873 5872 5872 5869 5867 5865 5864 5863 5862 5861 5860 5859 5858 5857 5855 5854 5854 5854 5854 5854 5853 5853 5853 5853 5853 5853 5854 5854 5855 5855 5856 5856 5856 5858 5859 5859 5860 5862 5862 5862 5863 5864 5864 5866 5866 5866 5866
5875 5873 5873 5871 5870 5868 5867 5864 5864 5863 5861 5860 5859 5858 5856 5855 5854 5852 5852 5852 5852 5852 5852 5852 5852 5852 5852 5853 5852 5852 5853 5854 5855 5856 5856 5857 5857 5858 5859 5860 5860 5862 5862 5863 5864 5865 5865 5866 5866
5874 5874 5873 5871 5868 5867 5866 5864 5863 5862 5861 5859 5858 5857 5856 5854 5853 5851 5850 5849 5850 5850 5850 5850 5850 5850 5850 5850 5851 5851 5851 5851 5852 5853 5854 5855 5856 5856 5857 5858 5859 5858 5859 5860 5861 5862 5863 5864 5864
5874 5873 5872 5871 5869 5868 5866 5865 5863 5862 5860 5859 5857 5856 5855 5854 5852 5850 5849 5848 5847 5847 5847 5847 5848 5849 5849 5849 5849 5850 5850 5850 5851 5851 5852 5853 5854 5854 5855 5856 5856 5857 5858 5859 5859 5859 5860 5860 5860
5874 5872 5871 5870 5868 5867 5866 5865 5864 5862 5860 5858 5856 5854 5854 5852 5851 5850 5848 5847 5846 5845 5845 5845 5845 5846 5846 5847 5847 5847 5847 5848 5849 5849 5849 5850 5851 5852 5853 5853 5854 5855 5855 5855 5856 5856 5857 5857 5857
5872 5871 5870 5869 5868 5867 5866 5865 5864 5862 5860 5859 5857 5854 5853 5851 5850 5849 5848 5846 5845 5844 5843 5843 5842 5842 5843 5843 5843 5844 5844 5845 5846 5846 5847 5847 5848 5848 5848 5849 5850 5851 5852 5852 5852 5853 5854 5854 5855
5870 5869 5868 5867 5866 5865 5864 5863 5862 5861 5859 5857 5856 5854 5852 5851 5849 5847 5846 5845 5843 5842 5841 5840 5840 5840 5840 5840 5840 5840 5840 5841 5841 5842 5842 5843 5844 5844 5845 5845 5846 5847 5848 5849 5849 5849 5850 5851 5851
5866 5866 5864 5864 5863 5862 5861 5859 5857 5857 5856 5855 5854 5852 5850 5849 5848 5847 5845 5843 5841 5840 5839 5838 5837 5836 5836 5836 5836 5835 5835 5835 5836 5837 5837 5838 5839 5839 5840 5841 5842 5842 5843 5844 5844 5845 5845 5845 5845
5861 5861 5860 5859 5858 5857 5856 5855 5853 5854 5851 5850 5849 5848 5847 5845 5844 5843 5842 5841 5839 5838 5836 5835 5834 5833 5833 5832 5832 5831 5831 5831 5831 5830 5831 5831 5832 5833 5834 5835 5836 5837 5837 5838 5838 5838 5838 5839 5839
5858 5857 5853 5853 5851 5850 5849 5849 5848 5848 5847 5842 5842 5842 5843 5841 5839 5838 5837 5836 5835 5834 5833 5832 5831 5830 5829 5828 5827 5826 5826 5825 5825 5825 5825 5826 5826 5827 5827 5828 5828 5829 5829 5830 5831 5831 5832 5832 5833
5852 5851 5847 5849 5844 5843 5841 5842 5842 5842 5841 5836 5836 5835 5835 5833 5832 5831 5830 5830 5829 5828 5827 5826 5825 5825 5824 5823 5822 5821 5820 5819 5819 5819 5820 5820 5820 5820 5821 5821 5821 5822 5822 5823 5824 5824 5824 5825 5825
5844 5844 5842 5841 5840 5836 5832 5835 5832 5838 5831 5829 5829 5828 5826 5825 5825 5824 5823 5822 5821 5821 5820 5820 5818 5818 5817 5817 5817 5816 5815 5814 5813 5813 5814 5814 5814 5814 5814 5813 5814 5814 5814 5814 5815 5815 5816 5816 5816
5836 5837 5837 5837 5834 5828 5824 5826 5824 5833 5822 5823 5822 5820 5818 5818 5817 5816 5815 5814 5813 5812 5812 5810 5811 5810 5810 5810 5809 5808 5808 5806 5806 5806 5806 5806 5806 5806 5806 5806 5806 5806 5806 5806 5807 5807 5807 5806 5807
5829 5828 5828 5832 5827 5820 5814 5816 5822 5822 5814 5815 5815 5812 5811 5810 5809 5809 5807 5806 5804 5804 5803 5802 5802 5802 5803 5802 5801 5801 5800 5800 5800 5799 5799 5799 5800 5800 5800 5799 5799 5799 5799 5798 5798 5798 5798 5797 5797
5821 5818 5820 5826 5819 5813 5807 5804 5818 5812 5807 5808 5807 5806 5805 5804 5801 5801 5799 5798 5796 5795 5794 5793 5793 5793 5793 5793 5793 5794 5793 5793 5792 5792 5793 5792 5792 5792 5792 5792 5792 5792 5791 5791 5790 5789 5789 5789 5789
5816 5806 5806 5809 5817 5806 5800 5793 5809 5805 5799 5798 5798 5798 5798 5797 5796 5794 5791 5789 5787 5786 5785 5785 5784 5784 5784 5784 5784 5785 5784 5785 5784 5785 5785 5785 5785 5785 5784 5784 5785 5784 5783 5782 5782 5781 5781 5780 5779
5803 5796 5796 5797 5810 5798 5786 5782 5789 5795 5791 5791 5792 5791 5789 5787 5790 5786 5781 5779 5778 5777 5777 5776 5776 5776 5775 5776 5775 5774 5775 5777 5775 5775 5775 5776 5776 5776 5776 5776 5776 5776 5775 5774 5772 5771 5771 5770 5770
5791 5789 5787 5791 5793 5780 5776 5769 5774 5780 5782 5784 5783 5781 5779 5776 5778 5776 5774 5770 5768 5768 5768 5767 5766 5767 5766 5766 5766 5765 5765 5765 5765 5765 5764 5766 5766 5766 5767 5766 5765 5765 5765 5763 5762 5761 5760 5760 5760
5784 5781 5778 5778 5781 5772 5766 5759 5765 5770 5771 5773 5772 5769 5769 5769 5768 5767 5764 5762 5761 5760 5760 5759 5757 5757 5757 5756 5756 5756 5756 5755 5755 5754 5756 5756 5756 5756 5756 5756 5756 5755 5754 5753 5752 5751 5750 5750 5749
5776 5773 5772 5764 5765 5763 5758 5745 5755 5765 5764 5763 5761 5762 5759 5758 5757 5756 5753 5751 5751 5750 5749 5748 5747 5748 5747 5747 5746 5747 5747 5746 5746 5745 5744 5744 5745 5746 5745 5744 5744 5744 5743 5743 5743 5742 5741 5740 5739
5761 5764 5759 5757 5754 5747 5750 5732 5744 5754 5758 5758 5754 5752 5752 5748 5746 5745 5743 5741 5739 5739 5737 5737 5738 5737 5736 5737 5736 5737 5736 5735 5735 5734 5733 5734 5735 5735 5734 5733 5732 5732 5731 5731 5730 5730 5730 5732 5731
5752 5749 5750 5747 5745 5742 5736 5735 5733 5733 5742 5744 5746 5747 5743 5741 5737 5736 5732 5730 5730 5728 5726 5725 5725 5725 5725 5725 5725 5725 5725 5725 5723 5723 5723 5723 5723 5723 5722 5722 5720 5718 5718 5718 5717 5717 5718 5718 5718
5741 5737 5734 5733 5730 5729 5731 5728 5725 5730 5722 5723 5727 5729 5730 5723 5726 5724 5722 5721 5719 5719 5718 5715 5713 5712 5713 5713 5713 5713 5713 5712 5712 5713 5713 5713 5712 5712 5712 5712 5711 5709 5708 5706 5705 5706 5705 5705 5705
5727 5724 5718 5713 5712 5719 5721 5716 5718 5717 5719 5717 5714 5709 5706 5710 5711 5709 5709 5710 5708 5705 5705 5705 5704 5703 5701 5700 5701 5700 5701 5701 5702 5702 5701 5701 5701 5701 5701 5700 5699 5697 5696 5695 5694 5692 5691 5692 5691
5711 5709 5705 5696 5699 5699 5703 5696 5704 5710 5710 5704 5701 5699 5696 5691 5693 5698 5692 5693 5694 5693 5690 5690 5691 5691 5691 5690 5688 5688 5689 5690 5690 5689 5688 5687 5686 5686 5687 5687 5686 5683 5681 5680 5680 5680 5679 5679 5677
5701 5694 5695 5680 5679 5672 5682 5684 5691 5699 5696 5693 5692 5689 5684 5683 5680 5679 5676 5679 5680 5678 5679 5677 5676 5677 5678 5679 5677 5677 5677 5677 5677 5677 5675 5673 5672 5672 5672 5672 5670 5669 5668 5666 5665 5665 5666 5664 5662
5678 5681 5673 5669 5657 5652 5653 5665 5672 5685 5683 5676 5675 5675 5676 5672 5668 5667 5666 5665 5665 5666 5665 5664 5663 5663 5666 5665 5666 5666 5664 5662 5660 5659 5660 5658 5656 5656 5655 5655 5655 5654 5652 5651 5650 5650 5650 5649 5648
5658 5655 5657 5649 5644 5635 5633 5635 5668 5670 5666 5658 5660 5659 5657 5656 5653 5652 5649 5650 5650 5649 5648 5646 5644 5646 5650 5649 5648 5649 5649 5650 5648 5648 5645 5644 5642 5640 5640 5640 5639 5638 5635 5635 5634 5634 5634 5634 5631
5637 5637 5637 5625 5625 5620 5614 5612 5648 5654 5652 5647 5644 5642 5640 5635 5634 5630 5628 5627 5629 5629 5627 5627 5631 5633 5631 5630 5632 5632 5631 5632 5631 5632 5630 5628 5627 5625 5623 5623 5624 5622 5620 5619 5618 5616 5615 5615 5614